Regional Weather Roundup
Issued by NWS

Home | Current Version | Previous Version | Text Only | Print | Product List | Glossary Off
Versions: 1 2 3 4 5 6 7 8 9 10 11 12 13 14 15 16 17 18 19 20 21 22 23 24 25 26 27 28 29 30 31 32 33 34 35 36 37 38 39 40 41 42 43 44 45 46 47 48 49 50

061
ASUS44 KLIX 201305
RWRLA
LOUISIANA WEATHER ROUNDUP
NATIONAL WEATHER SERVICE NEW ORLEANS LA
700 AM CST SAT DEC 20 2014

NOTE: "FAIR" INDICATES FEW OR NO CLOUDS BELOW 12,000 FEET WITH NO
      SIGNIFICANT WEATHER AND/OR OBSTRUCTIONS TO VISIBILITY.
      SKY/WX - SKY CONDITION AND SIGNIFICANT WEATHER.
      TMP - AIR TEMPERATURE.    DP   - DEWPOINT TEMPERATURE.
      RH  - RELATIVE HUMIDITY.  PRES - PRESSURE.
      HX  - HEAT INDEX.         WCI  - WIND CHILL INDEX.

*  THESE STATIONS ARE NOT NWS OR FAA STATIONS AND ARE NOT UNDER
   NWS QUALITY CONTROL.

LAZ040-048-061>063-065-066-069-201400-
SOUTHEAST LOUISIANA

CITY           SKY/WX    TMP DP  RH WIND       PRES   REMARKS
N.O. AUDUBON     N/A     50  50 100 MISG        N/A
N.O. INTL ARPT CLOUDY    50  47  89 N15       30.11R
N.O. LAKEFRONT CLOUDY    52  48  86 NE20      30.12R
N.O. DOWNTOWN* CLOUDY    50  45  81 N9G16     30.12R
SLIDELL        CLOUDY    48  45  89 N12       30.11S
BATON ROUGE    CLOUDY    48  45  89 NE5       30.14R
BOOTHVILLE     CLOUDY    55  53  93 N9G22     30.08R
BELLE CHASSE   CLOUDY    50  47  89 NE12      30.10R
BOGALUSA*        N/A     48  45  89 N6        30.15F
GALLIANO*      CLOUDY    51  51  98 MISG      30.10R
NEW ROADS*     CLOUDY    47  46  95 N8        30.16R
GONZALES*      CLOUDY    48  48 100 NE5       30.13R
HAMMOND*       NOT AVBL
HOUMA*         NOT AVBL
PORT FOURCHON* CLOUDY    54  52  94 N15G22    30.11R

$$

LAZ041-044-053-054-201400-
SOUTHWEST LOUISIANA

CITY           SKY/WX    TMP DP  RH WIND       PRES   REMARKS
LAKE CHARLES   CLOUDY    49  48  97 N8        30.15R FOG
LAFAYETTE      CLOUDY    48  47  96 N12       30.14R
PATTERSON      CLOUDY    48  46  93 NE10      30.13R
SALT POINT       N/A     53  49  86 VRB7      30.10R
NEW IBERIA     CLOUDY    50  47  89 NE13      30.14R
CHENAULT AIRPK CLOUDY    48  46  93 N7        30.16R

$$

LAZ027-028-201400-
CENTRAL LOUISIANA

CITY           SKY/WX    TMP DP  RH WIND       PRES   REMARKS
FORT POLK      CLOUDY    46  45  97 NE9       30.17R
ALEXANDRIA INT CLOUDY    47  44  90 NE8       30.18R
ALEXANDRIA     CLOUDY    45  44  97 VRB3      30.19R

$$

LAZ001-002-201400-
NORTHWEST LOUISIANA

CITY           SKY/WX    TMP DP  RH WIND       PRES   REMARKS
SHREVEPORT     CLOUDY    45  43  93 N9        30.23R
BARKSDALE AFB  NOT AVBL
DTN SHREVEPORT CLOUDY    43  41  93 NE5       30.24R

$$

LAZ014-016-201400-
NORTHEAST LOUISIANA

CITY           SKY/WX    TMP DP  RH WIND       PRES   REMARKS
MONROE         CLEAR     40  39  97 N7        30.24R
TALLULAH       CLOUDY    44  42  93 N10       30.22R FOG

$$




USA.gov is the U.S. government's official web portal to all federal, state and local government web resources and services.